• en France
  • Liste des pays
  • À 7 jours
  • Température de l'eau
  • Carte satellitaire
  • Carte météo
  • Widgets météo
  • user-avatar
    Se connecter

    Météo par heure à Villavicencio

    Ce jour, 20 Février, Mardi

    Heure Température Précipitation Vent Pression Humidité
    00:00 +27°C° 0 mm 1 m/s 717 mmHg 69%
    01:00 +26°C° 0 mm 1 m/s 717 mmHg 69%
    02:00 +26°C° 0 mm 1 m/s 716 mmHg 69%
    03:00 +26°C° 0 mm 1 m/s 716 mmHg 68%
    04:00 +25°C° 0 mm 1 m/s 716 mmHg 68%
    05:00 +25°C° 0 mm 1 m/s 717 mmHg 68%
    06:00 +25°C° 0 mm 1 m/s 717 mmHg 68%
    07:00 +25°C° 0 mm 1 m/s 717 mmHg 68%
    08:00 +27°C° 0 mm 1 m/s 718 mmHg 62%
    09:00 +29°C° 0 mm 2 m/s 719 mmHg 56%
    10:00 +31°C° 0 mm 2 m/s 719 mmHg 50%
    11:00 +31°C° 0 mm 2 m/s 719 mmHg 49%
    12:00 +32°C° 0 mm 2 m/s 718 mmHg 49%
    13:00 +32°C° 0 mm 2 m/s 717 mmHg 48%
    14:00 +32°C° 0 mm 2 m/s 717 mmHg 48%
    15:00 +32°C° 0 mm 2 m/s 716 mmHg 49%
    16:00 +32°C° 0 mm 2 m/s 715 mmHg 49%
    17:00 +31°C° 0 mm 2 m/s 715 mmHg 53%
    18:00 +29°C° 0 mm 1 m/s 715 mmHg 57%
    19:00 +28°C° 0 mm 1 m/s 716 mmHg 61%
    20:00 +27°C° 0 mm 1 m/s 716 mmHg 61%
    21:00 +27°C° 0 mm 1 m/s 717 mmHg 62%
    22:00 +26°C° 0 mm 1 m/s 717 mmHg 62%
    23:00 +26°C° 0 mm 1 m/s 717 mmHg 62%

    Demain, 21 Février, Mercredi

    Heure Température Précipitation Vent Pression Humidité
    00:00 +26°C° 0 mm 1 m/s 717 mmHg 62%
    01:00 +25°C° 0 mm 1 m/s 717 mmHg 62%
    02:00 +25°C° 0 mm 1 m/s 717 mmHg 62%
    03:00 +25°C° 0 mm 1 m/s 717 mmHg 63%
    04:00 +24°C° 0 mm 1 m/s 717 mmHg 63%
    05:00 +25°C° 0 mm 1 m/s 717 mmHg 63%
    06:00 +25°C° 0 mm 1 m/s 718 mmHg 63%
    07:00 +25°C° 0 mm 1 m/s 718 mmHg 63%
    08:00 +27°C° 0 mm 1 m/s 719 mmHg 57%
    09:00 +29°C° 0 mm 2 m/s 719 mmHg 52%
    10:00 +31°C° 0 mm 2 m/s 720 mmHg 46%
    11:00 +32°C° 0 mm 2 m/s 719 mmHg 46%
    12:00 +32°C° 0 mm 2 m/s 718 mmHg 46%
    13:00 +34°C° 0 mm 2 m/s 717 mmHg 46%
    14:00 +34°C° 0 mm 2 m/s 716 mmHg 46%
    15:00 +34°C° 0 mm 2 m/s 716 mmHg 47%
    16:00 +32°C° 0 mm 2 m/s 715 mmHg 48%
    17:00 +31°C° 0 mm 1 m/s 715 mmHg 52%
    18:00 +29°C° 0 mm 1 m/s 715 mmHg 55%
    19:00 +28°C° 0 mm 1 m/s 716 mmHg 59%
    20:00 +27°C° 0 mm 1 m/s 717 mmHg 60%
    21:00 +27°C° 0 mm 1 m/s 717 mmHg 60%
    22:00 +27°C° 0 mm 1 m/s 718 mmHg 61%
    23:00 +26°C° 0 mm 1 m/s 718 mmHg 62%

    Après-demain, 22 Février, Jeudi

    Heure Température Précipitation Vent Pression Humidité
    00:00 +26°C° 0 mm 1 m/s 717 mmHg 62%
    01:00 +25°C° 0 mm 1 m/s 717 mmHg 63%
    02:00 +25°C° 0 mm 1 m/s 717 mmHg 63%
    03:00 +25°C° 0 mm 1 m/s 717 mmHg 64%
    04:00 +24°C° 0 mm 1 m/s 717 mmHg 64%
    05:00 +25°C° 0 mm 1 m/s 717 mmHg 63%
    06:00 +25°C° 0 mm 1 m/s 718 mmHg 63%
    07:00 +25°C° 0 mm 1 m/s 718 mmHg 63%
    08:00 +27°C° 0 mm 2 m/s 719 mmHg 58%
    09:00 +29°C° 0 mm 2 m/s 719 mmHg 53%
    10:00 +33°C° 0 mm 3 m/s 720 mmHg 48%
    11:00 +32°C° 0,1 mm 2 m/s 719 mmHg 49%
    12:00 +32°C° 0,1 mm 2 m/s 718 mmHg 50%
    13:00 +32°C° 0,1 mm 2 m/s 717 mmHg 50%
    14:00 +32°C° 0,1 mm 2 m/s 716 mmHg 51%
    15:00 +32°C° 0,1 mm 2 m/s 715 mmHg 51%
    16:00 +32°C° 0,1 mm 2 m/s 714 mmHg 51%
    17:00 +31°C° 0,1 mm 1 m/s 715 mmHg 55%
    18:00 +30°C° 0,1 mm 1 m/s 715 mmHg 59%
    19:00 +29°C° 0,1 mm 1 m/s 716 mmHg 62%
    20:00 +28°C° 0,8 mm 1 m/s 716 mmHg 66%
    21:00 +27°C° 0,8 mm 2 m/s 717 mmHg 69%
    22:00 +27°C° 0,8 mm 2 m/s 718 mmHg 72%
    23:00 +27°C° 1,1 mm 2 m/s 717 mmHg 73%

    23 Février, Vendredi

    Heure Température Précipitation Vent Pression Humidité
    00:00 +26°C° 1,1 mm 2 m/s 717 mmHg 73%
    01:00 +26°C° 1,1 mm 2 m/s 717 mmHg 74%
    02:00 +26°C° 0,4 mm 1 m/s 717 mmHg 74%
    03:00 +26°C° 0,4 mm 1 m/s 717 mmHg 75%
    04:00 +25°C° 0,4 mm 1 m/s 716 mmHg 75%
    05:00 +26°C° 0,4 mm 1 m/s 717 mmHg 74%
    06:00 +26°C° 0,4 mm 1 m/s 718 mmHg 74%
    07:00 +26°C° 0,4 mm 1 m/s 718 mmHg 73%
    08:00 +27°C° 0,1 mm 2 m/s 719 mmHg 68%
    09:00 +29°C° 0,1 mm 2 m/s 719 mmHg 64%
    10:00 +30°C° 0,1 mm 2 m/s 719 mmHg 59%
    11:00 +31°C° 0 mm 2 m/s 718 mmHg 57%
    12:00 +31°C° 0 mm 2 m/s 717 mmHg 54%
    13:00 +32°C° 0 mm 2 m/s 716 mmHg 52%
    14:00 +32°C° 0,1 mm 2 m/s 716 mmHg 54%
    15:00 +31°C° 0,1 mm 1 m/s 715 mmHg 56%
    16:00 +31°C° 0,1 mm 1 m/s 714 mmHg 57%
    17:00 +30°C° 0 mm 1 m/s 714 mmHg 61%
    18:00 +29°C° 0 mm 1 m/s 715 mmHg 64%
    19:00 +27°C° 0 mm 1 m/s 715 mmHg 67%
    20:00 +27°C° 0,1 mm 1 m/s 716 mmHg 68%
    21:00 +27°C° 0,1 mm 1 m/s 716 mmHg 68%
    22:00 +27°C° 0,1 mm 1 m/s 717 mmHg 68%
    23:00 +27°C° 0,4 mm 1 m/s 717 mmHg 69%

    24 Février, Samedi

    Heure Température Précipitation Vent Pression Humidité
    00:00 +27°C° 0,4 mm 2 m/s 717 mmHg 69%
    01:00 +27°C° 0,4 mm 2 m/s 716 mmHg 69%
    02:00 +26°C° 0,7 mm 2 m/s 716 mmHg 70%
    03:00 +26°C° 0,7 mm 2 m/s 716 mmHg 71%
    04:00 +26°C° 0,7 mm 2 m/s 716 mmHg 73%
    05:00 +26°C° 0,5 mm 2 m/s 716 mmHg 72%
    06:00 +26°C° 0,5 mm 2 m/s 717 mmHg 72%
    07:00 +26°C° 0,5 mm 2 m/s 717 mmHg 72%
    08:00 +27°C° 0,2 mm 2 m/s 718 mmHg 67%
    09:00 +29°C° 0,2 mm 2 m/s 718 mmHg 62%
    10:00 +30°C° 0,2 mm 2 m/s 718 mmHg 57%
    11:00 +31°C° 0 mm 2 m/s 717 mmHg 55%
    12:00 +32°C° 0 mm 2 m/s 717 mmHg 52%
    13:00 +34°C° 0 mm 2 m/s 716 mmHg 49%
    14:00 +34°C° 0,1 mm 2 m/s 715 mmHg 49%
    15:00 +34°C° 0,1 mm 2 m/s 714 mmHg 49%
    16:00 +34°C° 0,1 mm 2 m/s 714 mmHg 49%
    17:00 +31°C° 0,2 mm 1 m/s 714 mmHg 54%
    18:00 +30°C° 0,2 mm 1 m/s 715 mmHg 59%
    19:00 +28°C° 0,2 mm 1 m/s 715 mmHg 64%
    20:00 +28°C° 0,5 mm 1 m/s 716 mmHg 67%
    21:00 +27°C° 0,5 mm 1 m/s 716 mmHg 69%
    22:00 +26°C° 0,5 mm 2 m/s 717 mmHg 72%
    23:00 +26°C° 0,4 mm 2 m/s 717 mmHg 72%

    25 Février, Dimanche

    Heure Température Précipitation Vent Pression Humidité
    00:00 +26°C° 0,4 mm 2 m/s 716 mmHg 72%
    01:00 +26°C° 0,4 mm 2 m/s 716 mmHg 72%
    02:00 +26°C° 0,1 mm 1 m/s 716 mmHg 72%
    03:00 +26°C° 0,1 mm 1 m/s 716 mmHg 72%
    04:00 +25°C° 0,1 mm 1 m/s 716 mmHg 73%
    05:00 +26°C° 0,1 mm 1 m/s 717 mmHg 72%
    06:00 +26°C° 0,1 mm 1 m/s 717 mmHg 71%
    07:00 +26°C° 0,1 mm 1 m/s 718 mmHg 70%
    08:00 +27°C° 0,1 mm 1 m/s 718 mmHg 67%
    09:00 +29°C° 0,1 mm 2 m/s 718 mmHg 63%
    10:00 +30°C° 0,1 mm 2 m/s 718 mmHg 59%
    11:00 +31°C° 0,1 mm 2 m/s 718 mmHg 56%
    12:00 +32°C° 0,1 mm 2 m/s 717 mmHg 52%
    13:00 +34°C° 0,1 mm 2 m/s 716 mmHg 49%
    14:00 +34°C° 0,1 mm 2 m/s 716 mmHg 50%
    15:00 +34°C° 0,1 mm 2 m/s 715 mmHg 52%
    16:00 +32°C° 0,1 mm 1 m/s 714 mmHg 53%
    17:00 +31°C° 0,2 mm 1 m/s 715 mmHg 57%
    18:00 +30°C° 0,2 mm 1 m/s 715 mmHg 61%
    19:00 +28°C° 0,2 mm 1 m/s 715 mmHg 64%
    20:00 +28°C° 0,7 mm 1 m/s 716 mmHg 67%
    21:00 +27°C° 0,7 mm 1 m/s 716 mmHg 71%
    22:00 +26°C° 0,7 mm 2 m/s 717 mmHg 74%
    23:00 +26°C° 0,6 mm 2 m/s 717 mmHg 75%
    Voir plus